User: anonymous   Login
Location: Newark
(43.6583°N, 1.6617°E)
Time: 12:18:37
(UTC+00:00)
Language:

Transit 4A - Orbit

View from above orbital plane
View from above orbital plane
View from above satellite
View from above satellite

Ground track
Ground track

The orbit data is extracted from the following two-line orbital elements,

1   116U 61015A   19232.94284708 -.00000070 +00000-0 +54375-5 0  9997
2   116 066.8077 225.2747 0080756 223.9320 135.5321 13.91756790949864
Epoch (UTC): 20 August 2019 22:37:41
Eccentricity: 0.0080756
inclination: 66.8077°
perigee height: 863 km
apogee height: 981 km
right ascension of ascending node: 225.2747°
argument of perigee: 223.9320°
revolutions per day: 13.91756790
mean anomaly at epoch: 135.5321°
orbit number at epoch: 94986

The dashed part of the orbit path shows where the satellite is in the earth's shadow,  

DLR